Location: Bright Sky Observatory
(40.7821°N, 74.2425°W)
Time: 03:57:25
(UTC-05:00)

Daily predictions for brighter satellites

Satellite Brightness Start Highest point End
(mag) Time Altitude Azimuth Time Altitude Azimuth Time Altitude Azimuth
Cosmos 2369 Rocket 4.4 02:59:34 20° NNE 02:59:34 20° NNE 03:01:10 10° NNE
ATLAS 5 CENTAUR R/B 3.9 03:28:12 23° NNE 03:28:12 23° NNE 03:30:10 10° NNE
Cosmos 1943 Rocket 3.4 03:33:34 37° NE 03:33:34 37° NE 03:36:53 10° NNE
ADEOS II 2.7 03:43:23 10° NNE 03:47:40 52° NE 03:47:40 52° NE
CZ-4B R/B 3.5 03:45:05 10° NNE 03:50:12 66° ENE 03:50:12 66° ENE
Okean-O 4.0 04:04:01 10° NNE 04:08:08 37° E 04:10:30 21° SSE
Lacrosse 5 rocket 3.8 04:08:34 13° NNE 04:08:50 13° NNE 04:10:42 10° ENE
Tiangong 1 4.1 04:16:41 16° ENE 04:16:41 16° ENE 04:17:22 10° ENE
Lacrosse 5 2.7 04:16:33 38° N 04:16:33 38° N 04:20:26 10° NE
Okean 2 Rocket 4.2 04:14:39 10° N 04:18:52 43° ENE 04:23:02 10° SSE
Cosmos 1703 Rocket 4.0 04:22:19 51° N 04:22:19 51° N 04:25:39 10° N
ATLAS CENTAUR R/B 3.8 04:21:00 47° WSW 04:21:53 49° SW 04:37:13 10° SSE
Meteor 1-14 Rocket 4.4 04:19:05 10° N 04:24:54 75° E 04:30:33 10° SSE
CZ-4C R/B 2.0 04:27:46 63° SW 04:28:40 82° NW 04:34:38 10° NNE
Cosmos 1656 Rocket 3.6 04:30:11 50° SW 04:31:44 80° WNW 04:37:27 10° NNE
Cosmos 1954 Rocket 3.9 04:30:13 15° NNW 04:34:35 73° WSW 04:39:52 10° S
S3M 4.2 04:30:21 10° S 04:36:38 72° E 04:42:53 10° NNE
GEOS 3 Rocket 3.4 04:32:19 10° SSE 04:37:23 75° SW 04:39:30 36° NW
Meteor 1-26 Rocket 4.1 04:36:08 36° SSW 04:38:29 68° WNW 04:44:04 10° N
CZ-4B DEB 4.5 04:34:22 10° N 04:39:38 45° WNW 04:39:46 45° WNW
Cosmos 2369 Rocket 3.9 04:41:22 17° NW 04:41:22 17° NW 04:44:00 10° N
Cosmos 2219 3.2 04:35:20 10° NNW 04:41:03 81° ENE 04:46:41 10° SSE
USA 234 3.2 04:35:03 10° NE 04:41:38 90° WNW 04:45:09 30° SW
Cosmos 1420 Rocket 3.9 04:38:54 28° SSW 04:41:41 90° ESE 04:46:54 10° NNE
Cosmos 1553 Rocket 4.0 04:36:28 10° S 04:42:39 83° E 04:48:59 10° N
Cosmos 2227 Rocket 4.1 04:38:34 10° N 04:43:27 29° NE 04:48:18 10° ESE
Meteor 1-25 Rocket 4.4 04:38:21 10° N 04:44:13 78° E 04:50:03 10° SSE
Okean O Rocket 3.8 04:41:05 10° NNW 04:41:51 14° NNW 04:41:51 14° NNW
Meteor 1-31 Rocket 2.6 04:45:27 10° N 04:49:20 75° WNW 04:50:11 52° SSW
COSMO-SKYMED 1 3.6 04:45:38 10° SE 04:49:47 46° ENE 04:53:57 10° N
NOAA 6 4.4 04:46:14 10° NNE 04:51:23 66° ESE 04:56:28 10° S
Cosmos 546 4.5 04:54:20 57° WNW 04:55:04 86° SW 04:58:54 10° SE
Meteor 2-10 Rocket 3.7 04:54:32 39° WSW 04:55:41 45° WNW 05:00:34 10° N
ATLAS 3B R/B 3.1 04:53:47 10° SSW 05:01:19 72° ESE 05:08:37 10° NE
Okean 1-7 3.1 05:00:20 35° SW 05:01:40 49° W 05:05:49 10° N
Cosmos 2221 Rocket 4.0 05:01:45 35° WSW 05:02:52 42° WNW 05:07:12 10° N
ERS-2 4.0 05:02:31 10° NNW 05:03:55 18° NNW 05:03:55 18° NNW
Thor Agena Rocket 3.5 05:04:00 10° S 05:09:07 58° WSW 05:14:13 10° NNW
Cosmos 1452 Rocket 4.2 05:07:57 29° W 05:09:14 33° WNW 05:14:00 10° N
ATLAS 5 CENTAUR R/B 3.6 05:09:45 15° NW 05:10:36 16° NNW 05:13:50 10° N
Meteor 1-10 Rocket 4.2 05:07:26 10° S 05:13:00 88° E 05:18:42 10° N
Cosmos 1943 Rocket 3.6 05:15:06 18° WNW 05:15:40 18° NW 05:19:26 10° N
SKYMED 3 4.5 05:15:24 10° S 05:19:44 80° WSW 05:24:06 10° NNW
Cosmos 1741 Rocket 4.0 05:16:34 10° NNW 05:21:44 59° WSW 05:26:53 10° S
CZ-4 R/B 4.4 05:18:46 10° NE 05:21:52 20° E 05:24:56 10° SE
Cosmos 1932 4.5 05:16:15 10° SW 05:22:36 75° WNW 05:29:07 10° NNE
COSMOS 2455 4.4 05:19:04 10° S 05:24:32 38° ESE 05:30:02 10° NE
Radarsat Rocket 4.2 05:17:35 10° NNE 05:24:46 84° WNW 05:31:04 10° SSW
ADEOS II 3.5 05:24:24 10° NNW 05:27:49 18° WNW 05:28:37 17° WNW
Meteor 1-28 Rocket 3.1 05:26:18 10° S 05:30:01 83° WSW 05:33:47 10° NNW
Cosmos 1300 Rocket 4.1 05:26:31 10° N 05:30:55 61° E 05:35:15 10° SSE
Cosmos 2315 Rocket 4.3 05:26:20 10° S 05:32:40 74° E 05:39:00 10° N
Cosmos 1745 Rocket 4.1 05:27:13 10° NNW 05:33:04 48° W 05:38:54 10° SSW
Cosmos 1386 Rocket 4.4 05:27:09 10° NNW 05:33:08 64° W 05:39:12 10° S
Cosmos 1140 Rocket 4.3 05:28:56 10° NW 05:33:19 27° W 05:37:41 10° SSW
SKYMED 2 3.7 05:33:36 10° S 05:37:48 50° W 05:42:02 10° NNW
CSL-04 Rocket 4.1 05:33:52 10° NNE 05:39:16 68° ESE 05:44:42 10° S
Cosmos 1536 3.9 05:39:35 10° N 05:43:30 49° E 05:47:23 10° SSE
Okean-O 3.9 05:41:05 10° NNW 05:44:23 21° WNW 05:47:39 10° WSW
Cosmos 2082 3.9 05:39:56 10° NNW 05:45:37 76° ENE 05:51:14 10° SSE
Meteor 1-27 Rocket 3.8 05:41:43 10° SSW 05:47:30 80° W 05:53:26 10° N
Lacrosse 5 rocket 1.1 05:44:58 10° NW 05:48:36 76° NE 05:52:12 10° SE
Cosmos 1674 Rocket 3.5 05:44:18 10° SSW 05:48:39 65° W 05:53:06 10° N
Cosmos 1378 Rocket 4.1 05:44:48 10° S 05:49:08 64° E 05:53:27 10° NNE
USA 81 4.5 05:44:38 10° SSW 05:49:33 39° W 05:54:30 10° N
Tiangong 1 1.2 05:48:10 14° WNW 05:50:33 57° N 05:53:28 10° E
BREEZE M DEB (TANK) 4.4 05:42:44 11° W 05:53:40 39° NNW 05:57:36 10° ENE
Cosmos 1606 3.7 05:52:57 10° SW 05:56:17 27° WNW 05:59:39 10° NNW
Cosmos 1602 3.9 05:55:46 10° NNW 05:59:38 53° W 06:03:28 10° S
Lacrosse 5 3.8 05:56:46 10° NW 05:59:47 15° NNW 06:02:47 10° NNE
Cosmos 2369 3.7 05:55:23 10° SSW 06:01:01 76° WNW 06:06:42 10° NNE
PAYLOAD A 3.9 05:57:07 10° NNE 06:01:53 83° WNW 06:06:47 10° SSW
Cosmos 1607 4.3 05:57:21 10° WSW 06:03:11 45° NW 06:09:08 10° NNE
SJ-12 4.3 06:00:08 10° NNE 06:04:15 73° ESE 06:08:22 10° S
Cosmos 1782 4.3 06:02:40 10° WSW 06:05:22 17° WNW 06:08:04 10° NNW
Cosmos 2297 Rocket 2.2 06:01:39 10° NNW 06:07:19 83° WSW 06:12:57 10° SSE
Okean 1 Rocket 3.1 06:06:13 10° NNW 06:10:36 64° W 06:14:54 10° S
